Grand Forks Air Force Base, ND

3:29 AM CDT on October 01, 2016 (GMT -0500)
Grand Forks International

Weather History for KGFK - July, 2013

Change the Weather History Date:

Monday, July 8, 2013

  Actual Average Record
Temperature  
Mean Temperature 72 °F 68 °F  
Max Temperature 87 °F 80 °F 96 °F (1948)
Min Temperature 56 °F 56 °F 46 °F (1953)
Degree Days  
Heating Degree Days 0 1  
Month to date heating degree days 0 9  
Since 1 June heating degree days 77 112  
Since 1 July heating degree days 0 9  
Cooling Degree Days 7 4  
Month to date cooling degree days 75 32  
Year to date cooling degree days 197 124  
Since 1 June cooling degree days 188 107  
Growing Degree Days 22 (Base 50)    
Moisture  
Dew Point 60 °F    
Average Humidity 66    
Maximum Humidity 93    
Minimum Humidity 39    
Precipitation  
Precipitation 0.00 in 0.12 in 1.34 in (1976)
Month to date precipitation 0.10 0.95  
Year to date precipitation 11.37 10.15  
Snow  
Snow 0.00 in 0.00 in - ()
Month to date snowfall 0.0 0.0  
Since 1 June snowfall 0.0 0.0  
Since 1 July snowfall 0.0 0.0  
Snow Depth 0.00 in    
Sea Level Pressure  
Sea Level Pressure 29.90 in    
Wind  
Wind Speed 6 mph (South)    
Max Wind Speed 13 mph    
Max Gust Speed 21 mph    
Visibility 10 miles    
Events      
T = Trace of Precipitation, MM = Missing Value Source: NWS Daily Summary

Daily Weather History Graph

Daily Weather History Graph

Search for Another Location

Airport or City:

Trip Planner

Search our weather history database for the weather conditions in past years. The results will help you decide how hot, cold, wet, or windy it might be!

Date:

Astronomy

Jul. 08, 2013 Rise Set
Actual Time 5:38 AM CDT 9:28 PM CDT
Civil Twilight 4:58 AM CDT 10:08 PM CDT
Nautical Twilight 4:03 AM CDT 11:03 PM CDT
Astronomical Twilight 2:41 AM CDT 12:24 AM CDT
Moon 6:16 AM CDT (7/8) 9:22 PM CDT (7/8)
Length of Visible Light 17h 09m
Length of Day
15h 49m
New Moon, 0% of the Moon is Illuminated
Jul 8
New Moon
Jul 15
First Quarter
Jul 22
Full
Jul 29
Last Quarter
Aug 6
New

Hourly Weather History & Observations

Time (CDT) Temp. Heat Index Dew Point Humidity Pressure Visibility Wind Dir Wind Speed Gust Speed Precip Events Conditions
12:53 AM 63.0 °F - 60.1 °F 90% 29.91 in 10.0 mi Calm Calm - N/A   Clear
1:53 AM 61.0 °F - 57.9 °F 90% 29.92 in 10.0 mi West 4.6 mph - N/A   Clear
2:53 AM 61.0 °F - 57.9 °F 90% 29.92 in 10.0 mi West 3.5 mph - N/A   Clear
3:53 AM 57.9 °F - 55.9 °F 93% 29.93 in 10.0 mi Calm Calm - N/A   Clear
4:53 AM 57.9 °F - 55.9 °F 93% 29.93 in 10.0 mi Calm Calm - N/A   Clear
5:53 AM 57.0 °F - 55.0 °F 93% 29.93 in 10.0 mi Calm Calm - N/A   Scattered Clouds
6:53 AM 60.1 °F - 57.9 °F 93% 29.94 in 10.0 mi Calm Calm - N/A   Partly Cloudy
7:53 AM 66.9 °F - 61.0 °F 81% 29.94 in 10.0 mi Calm Calm - N/A   Scattered Clouds
8:53 AM 73.9 °F - 61.0 °F 64% 29.93 in 10.0 mi ESE 3.5 mph - N/A   Scattered Clouds
9:53 AM 75.9 °F - 63.0 °F 64% 29.94 in 10.0 mi SSW 3.5 mph - N/A   Mostly Cloudy
10:53 AM 80.1 °F 80.7 °F 59.0 °F 48% 29.94 in 10.0 mi South 8.1 mph - N/A   Scattered Clouds
11:53 AM 80.1 °F 80.7 °F 59.0 °F 48% 29.94 in 10.0 mi South 5.8 mph - N/A   Mostly Cloudy
12:53 PM 82.0 °F 82.4 °F 60.1 °F 47% 29.93 in 10.0 mi South 9.2 mph - N/A   Mostly Cloudy
1:53 PM 82.9 °F 83.3 °F 61.0 °F 47% 29.93 in 10.0 mi SSE 8.1 mph - N/A   Scattered Clouds
2:53 PM 82.0 °F 82.4 °F 60.1 °F 47% 29.91 in 10.0 mi South 6.9 mph - N/A   Scattered Clouds
3:53 PM 86.0 °F 85.4 °F 59.0 °F 40% 29.89 in 10.0 mi SSW 12.7 mph - N/A   Partly Cloudy
4:53 PM 87.1 °F 86.5 °F 59.0 °F 39% 29.88 in 10.0 mi South 10.4 mph - N/A   Partly Cloudy
5:53 PM 86.0 °F 86.1 °F 61.0 °F 43% 29.87 in 10.0 mi SSW 9.2 mph - N/A   Partly Cloudy
6:53 PM 84.9 °F 85.4 °F 62.1 °F 46% 29.85 in 10.0 mi SSW 8.1 mph - N/A   Partly Cloudy
7:53 PM 82.9 °F 84.4 °F 64.0 °F 53% 29.84 in 10.0 mi SSW 6.9 mph - N/A   Scattered Clouds
8:53 PM 78.1 °F - 64.0 °F 62% 29.82 in 10.0 mi South 8.1 mph - N/A   Partly Cloudy
9:53 PM 77.0 °F - 61.0 °F 58% 29.83 in 10.0 mi South 8.1 mph - N/A   Partly Cloudy
10:53 PM 72.0 °F - 62.1 °F 71% 29.84 in 10.0 mi South 5.8 mph - N/A   Partly Cloudy
11:53 PM 72.0 °F - 63.0 °F 73% 29.84 in 10.0 mi South 8.1 mph - N/A   Clear